Location: Hungerford
(51.4167°N, 1.5167°W)
Time: 12:51:54
(UTC+00:00)

Cosmos 1300 Rocket - Pass Details

Date: 18 September 2020
Orbit: 601 x 627 km, 82.5° (Epoch: 25 October)

Event Time Altitude Azimuth Distance (km) Brightness Sun altitude
Rises 19:54:24 0° 191° (S) 2,879 6.9 -16.2°
Reaches altitude 10° 19:56:37 10° 192° (SSW) 1,982 6.0 -16.5°
Maximum altitude 20:01:01 83° 281° (W) 635 3.6 -17.1°
Drops below altitude 10° 20:05:29 10° 9° (N) 2,011 6.4 -17.8°
Sets 20:07:44 0° 11° (N) 2,925 7.2 -18.1°
